Weather History for KGBG - February, 2013

Change the Weather History Date:

Thursday, February 28, 2013

  Actual Average Record
Temperature  
Mean Temperature 32 °F -  
Max Temperature 34 °F 42 °F 62 °F (1965)
Min Temperature 29 °F 25 °F -8 °F (2015)
Degree Days  
Heating Degree Days 34    
Moisture  
Dew Point 30 °F    
Average Humidity 91    
Maximum Humidity 100    
Minimum Humidity 82    
Precipitation  
Precipitation 0.01 in - - ()
Sea Level Pressure  
Sea Level Pressure 29.98 in    
Wind  
Wind Speed 9 mph (NW)    
Max Wind Speed 12 mph    
Max Gust Speed 17 mph    
Visibility 8 miles    
Events Snow    
Averages and records for this station are not official NWS values.
T = Trace of Precipitation, MM = Missing Value Source: NWS Daily Summary

Daily Weather History Graph

Daily Weather History Graph

Search for Another Location

Airport or City:

Trip Planner

Search our weather history database for the weather conditions in past years. The results will help you decide how hot, cold, wet, or windy it might be!

Date:

Astronomy

Feb. 28, 2013 Rise Set
Actual Time 6:36 AM CST 5:51 PM CST
Civil Twilight 6:09 AM CST 6:19 PM CST
Nautical Twilight 5:37 AM CST 6:51 PM CST
Astronomical Twilight 5:05 AM CST 7:23 PM CST
Moon 9:21 PM CST 7:44 AM CST
Length of Visible Light 12h 10m
Length of Day
11h 15m
Waning Gibbous, 90% of the Moon is Illuminated
Feb 28
Waning Gibbous
Mar 4
Last Quarter
Mar 11
New
Mar 19
First Quarter
Mar 27
Full

Hourly Weather History & Observations

Time (CST) Temp. Windchill Dew Point Humidity Pressure Visibility Wind Dir Wind Speed Gust Speed Precip Events Conditions
12:15 AM 30.9 °F 22.8 °F 30.0 °F 96% 29.82 in 10.0 mi WNW 9.2 mph - N/A   Overcast
12:35 AM 31.1 °F 23.1 °F 30.2 °F 96% 29.82 in 10.0 mi WNW 9.2 mph - N/A   Overcast
12:55 AM 32.0 °F 24.2 °F 30.2 °F 93% 29.83 in 10.0 mi WNW 9.2 mph - N/A Snow Light Snow
1:15 AM 31.5 °F 22.9 °F 30.6 °F 96% 29.84 in 3.0 mi WNW 10.4 mph - N/A Snow Light Snow
1:35 AM 31.6 °F 23.1 °F 30.7 °F 96% 29.84 in 7.0 mi NW 10.4 mph - N/A Snow Light Snow
1:55 AM 31.6 °F 23.7 °F 30.9 °F 97% 29.84 in 7.0 mi NW 9.2 mph - N/A Snow Light Snow
2:15 AM 31.5 °F 22.9 °F 30.6 °F 96% 29.84 in 10.0 mi WNW 10.4 mph - N/A Snow Light Snow
2:35 AM 31.6 °F 22.6 °F 30.6 °F 96% 29.85 in 10.0 mi WNW 11.5 mph - N/A Snow Light Snow
2:55 AM 31.5 °F 22.9 °F 30.2 °F 95% 29.85 in 10.0 mi NW 10.4 mph 17.3 mph N/A Snow Light Snow
3:15 AM 31.3 °F 23.3 °F 30.2 °F 96% 29.86 in 10.0 mi WNW 9.2 mph - N/A Snow Light Snow
3:35 AM 32.0 °F 24.2 °F 30.2 °F 93% 29.86 in 10.0 mi NW 9.2 mph - N/A   Overcast
3:55 AM 30.9 °F 22.8 °F 30.0 °F 96% 29.86 in 10.0 mi WNW 9.2 mph - N/A Snow Light Snow
4:15 AM 30.2 °F 21.9 °F 30.2 °F 100% 29.87 in 10.0 mi WNW 9.2 mph - N/A   Overcast
4:35 AM 30.9 °F 22.8 °F 30.0 °F 96% 29.88 in 10.0 mi WNW 9.2 mph - N/A   Overcast
4:55 AM 31.1 °F 23.1 °F 30.2 °F 96% 29.88 in 10.0 mi NW 9.2 mph - N/A   Overcast
5:15 AM 31.5 °F 23.5 °F 29.7 °F 93% 29.89 in 10.0 mi NW 9.2 mph - N/A   Overcast
5:35 AM 31.1 °F 22.4 °F 29.3 °F 93% 29.90 in 10.0 mi NW 10.4 mph - N/A Snow Light Snow
5:55 AM 31.1 °F 22.4 °F 29.3 °F 93% 29.91 in 10.0 mi NW 10.4 mph - N/A   Overcast
6:15 AM 31.1 °F 21.9 °F 29.3 °F 93% 29.91 in 10.0 mi NW 11.5 mph - N/A Snow Light Snow
6:35 AM 31.1 °F 22.4 °F 29.1 °F 92% 29.91 in 10.0 mi NW 10.4 mph - N/A   Overcast
6:55 AM 31.1 °F 23.1 °F 29.1 °F 92% 29.92 in 7.0 mi NW 9.2 mph - N/A Snow Light Snow
7:15 AM 31.1 °F 22.4 °F 29.1 °F 92% 29.94 in 5.0 mi NW 10.4 mph - N/A Snow Light Snow
7:35 AM 31.1 °F 23.7 °F 29.1 °F 92% 29.94 in 5.0 mi NW 8.1 mph - N/A Snow Light Snow
7:55 AM 31.1 °F 23.1 °F 29.1 °F 92% 29.95 in 5.0 mi NW 9.2 mph - N/A Snow Light Snow
8:15 AM 31.6 °F 23.7 °F 29.3 °F 91% 29.96 in 4.0 mi NW 9.2 mph - N/A Snow Light Snow
8:35 AM 31.8 °F 23.9 °F 29.8 °F 92% 29.96 in 2.0 mi NW 9.2 mph - N/A Snow Light Snow
8:55 AM 32.0 °F 23.6 °F 29.8 °F 92% 29.97 in 4.0 mi NW 10.4 mph 17.3 mph N/A Snow Light Snow
9:15 AM 32.0 °F 23.6 °F 29.8 °F 92% 29.97 in 10.0 mi NW 10.4 mph - N/A   Overcast
9:35 AM 32.9 °F 24.7 °F 29.8 °F 88% 29.97 in 10.0 mi NNW 10.4 mph - N/A   Overcast
9:55 AM 33.1 °F 24.4 °F 29.8 °F 88% 29.98 in 10.0 mi NNW 11.5 mph - N/A   Overcast
10:15 AM 33.4 °F 24.8 °F 29.5 °F 85% 29.98 in 10.0 mi NNW 11.5 mph - N/A   Overcast
10:35 AM 33.6 °F 25.0 °F 29.5 °F 85% 29.99 in 10.0 mi NNW 11.5 mph - N/A   Overcast
10:55 AM 33.8 °F 26.4 °F 29.5 °F 84% 30.00 in 10.0 mi NNW 9.2 mph - N/A   Overcast
11:15 AM 34.0 °F 27.2 °F 29.7 °F 84% 30.00 in 10.0 mi NW 8.1 mph - N/A   Overcast
11:35 AM 33.8 °F 27.7 °F 30.2 °F 87% 30.00 in 10.0 mi NW 6.9 mph - N/A   Overcast
11:55 AM 34.3 °F 27.0 °F 29.5 °F 82% 30.00 in 10.0 mi NNW 9.2 mph - N/A   Overcast
12:15 PM 34.3 °F 26.5 °F 29.3 °F 82% 30.00 in 10.0 mi NW 10.4 mph - N/A   Overcast
12:35 PM 34.3 °F 27.0 °F 29.5 °F 82% 30.01 in 10.0 mi NW 9.2 mph - N/A   Overcast
12:55 PM 34.5 °F 26.7 °F 29.7 °F 82% 30.01 in 10.0 mi NW 10.4 mph - N/A   Overcast
1:15 PM 34.5 °F 27.3 °F 29.5 °F 82% 30.01 in 10.0 mi NW 9.2 mph - N/A   Overcast
1:35 PM 34.3 °F 27.0 °F 29.5 °F 82% 30.01 in 10.0 mi NW 9.2 mph - N/A   Overcast
1:55 PM 34.2 °F 26.2 °F 29.7 °F 84% 30.01 in 10.0 mi NW 10.4 mph - N/A   Overcast
2:15 PM 34.0 °F 26.0 °F 29.7 °F 84% 30.02 in 10.0 mi NW 10.4 mph - N/A   Overcast
2:35 PM 33.8 °F 26.4 °F 29.3 °F 84% 30.02 in 10.0 mi NW 9.2 mph - N/A   Overcast
2:55 PM 33.4 °F 25.4 °F 29.1 °F 84% 30.03 in 10.0 mi NW 10.4 mph - N/A   Overcast
3:15 PM 33.4 °F 25.9 °F 29.3 °F 85% 30.03 in 10.0 mi NW 9.2 mph - N/A   Overcast
3:35 PM 33.8 °F 26.4 °F 29.3 °F 84% 30.04 in 10.0 mi NW 9.2 mph - N/A   Overcast
3:55 PM 33.3 °F 25.7 °F 29.3 °F 85% 30.04 in 10.0 mi NW 9.2 mph - N/A   Overcast
4:15 PM 33.1 °F 26.9 °F 29.3 °F 86% 30.04 in 10.0 mi NW 6.9 mph - N/A   Overcast
4:35 PM 33.3 °F 27.1 °F 29.3 °F 85% 30.04 in 10.0 mi NW 6.9 mph - N/A   Overcast
4:55 PM 33.1 °F 26.9 °F 29.3 °F 86% 30.04 in 10.0 mi NW 6.9 mph - N/A   Overcast
5:15 PM 32.9 °F 27.5 °F 29.3 °F 87% 30.05 in 10.0 mi NW 5.8 mph - N/A   Overcast
5:35 PM 32.9 °F 26.7 °F 29.1 °F 86% 30.05 in 10.0 mi NW 6.9 mph - N/A   Overcast
5:55 PM 32.5 °F 28.1 °F 29.1 °F 87% 30.06 in 10.0 mi NW 4.6 mph - N/A   Overcast
6:15 PM 32.2 °F 27.7 °F 29.3 °F 89% 30.06 in 10.0 mi NW 4.6 mph - N/A   Overcast
6:35 PM 32.0 °F 28.7 °F 29.3 °F 90% 30.07 in 10.0 mi NW 3.5 mph - N/A   Overcast
6:55 PM 32.0 °F 27.5 °F 29.3 °F 90% 30.07 in 7.0 mi NW 4.6 mph - N/A Snow Light Snow
7:15 PM 31.8 °F 26.2 °F 29.7 °F 92% 30.07 in 4.0 mi WNW 5.8 mph - N/A Snow Light Snow
7:35 PM 31.6 °F 25.1 °F 30.4 °F 95% 30.07 in 3.0 mi WNW 6.9 mph - N/A Snow Light Snow
7:55 PM 31.1 °F 25.4 °F 30.2 °F 96% 30.07 in 4.0 mi NW 5.8 mph - N/A Snow Light Snow
8:15 PM 31.1 °F 26.4 °F 30.6 °F 98% 30.07 in 2.5 mi WNW 4.6 mph - N/A Snow Light Snow
8:35 PM 30.7 °F 24.9 °F 30.2 °F 98% 30.07 in 2.5 mi NW 5.8 mph - N/A Snow Light Snow
8:55 PM 30.2 °F 24.3 °F 30.2 °F 100% 30.08 in 2.5 mi WNW 5.8 mph - N/A Snow Light Snow
9:15 PM 30.7 °F 24.1 °F 30.6 °F 99% 30.08 in 1.2 mi NW 6.9 mph - 0.01 in Snow Light Snow
9:35 PM 30.6 °F 24.7 °F 30.2 °F 99% 30.08 in 2.0 mi NW 5.8 mph - 0.01 in Snow Light Snow
9:55 PM 30.2 °F 23.4 °F 30.0 °F 99% 30.08 in 2.0 mi NW 6.9 mph - 0.01 in Snow Light Snow
10:15 PM 29.8 °F 23.0 °F 29.7 °F 99% 30.09 in 3.0 mi NW 6.9 mph - N/A Snow Light Snow
10:35 PM 29.8 °F 23.9 °F 29.7 °F 99% 30.08 in 5.0 mi NW 5.8 mph - N/A Snow Light Snow
10:55 PM 29.8 °F 23.9 °F 29.7 °F 99% 30.08 in 5.0 mi NW 5.8 mph - N/A Snow Light Snow
11:15 PM 29.7 °F 22.8 °F 29.3 °F 99% 30.08 in 4.0 mi NW 6.9 mph - N/A Snow Light Snow
11:35 PM 29.7 °F 24.7 °F 29.3 °F 99% 30.08 in 2.5 mi NW 4.6 mph - N/A Snow Light Snow
11:55 PM 30.2 °F 24.3 °F 30.2 °F 100% 30.08 in 3.0 mi NW 5.8 mph - N/A Snow Light Snow